Regional Weather Roundup
Issued by NWS Upton, NY

Current Version | Previous Version | Text Only | Print | Product List | Glossary On
Versions: 1 2 3 4 5 6 7 8 9 10 11 12 13 14 15 16 17 18 19 20 21 22 23 24 25 26 27 28 29 30 31 32 33 34 35 36 37 38 39 40 41 42 43 44 45 46 47 48 49 50
000 ASUS41 KOKX 272005 RWROKX REGIONAL WEATHER ROUNDUP NATIONAL WEATHER SERVICE NEW YORK NY 300 PM EST SAT DEC 27 2014 NOTE: "FAIR" INDICATES FEW OR NO CLOUDS BELOW 12,000 FEET WITH NO SIGNIFICANT WEATHER AND/OR OBSTRUCTIONS TO VISIBILITY. NYZ071-072-176-178-NJZ106-104-272100- NEW YORK CITY METRO AREA CITY SKY/WX TMP DP RH WIND PRES REMARKS CENTRAL PARK SUNNY 55 32 41 W5 30.18F LAGUARDIA APRT PTSUNNY 54 33 45 SW6 30.15F KENNEDY INTL PTSUNNY 50 37 61 S7 30.18F NEWARK/LIBERTY PTSUNNY 55 34 45 SW9 30.16F BRNX BOT. GARD N/A 55 32 41 SW7 30.18S TETERBORO SUNNY 56 34 43 S5 30.15F $$ NYZ177-179-078>081-272100- LONG ISLAND NEW YORK CITY SKY/WX TMP DP RH WIND PRES REMARKS FARMINGDALE SUNNY 51 34 52 S8 30.17F ISLIP PTSUNNY 50 32 50 S8 30.16F SHIRLEY SUNNY 50 32 50 S7 30.18F WESTHAMPTON SUNNY 50 32 50 SW7 30.19F MONTAUK POINT N/A 50 38 63 S5 30.19R $$ NYZ052-065-067-272100- HUDSON VALLEY CITY SKY/WX TMP DP RH WIND PRES REMARKS WHITE PLAINS SUNNY 52 33 48 CALM 30.14F NEWBURGH MOSUNNY 50 37 62 W7 30.17F MONTGOMERY CLOUDY 53 34 48 CALM 30.14F POUGHKEEPSIE CLOUDY 53 34 48 W7 30.15F ALBANY MOSUNNY 49 34 56 S6 30.13S $$ NJZ001-105-106-008-010-013-015-019>022-104-272100- NEW JERSEY CITY SKY/WX TMP DP RH WIND PRES REMARKS NEWARK/LIBERTY PTSUNNY 55 34 45 SW9 30.16F TETERBORO SUNNY 56 34 43 S5 30.15F CALDWELL SUNNY 55 33 43 W6 30.16F MORRISTOWN SUNNY 57 37 47 SW6 30.16F SOMERVILLE SUNNY 56 31 38 VRB3 30.15F SUSSEX SUNNY 53 35 50 CALM 30.15S ANDOVER NOT AVBL TRENTON SUNNY 56 30 37 SW8 30.17F MILLVILLE MOSUNNY 58 30 34 CALM 30.20R ATLANTIC CITY MOSUNNY 57 29 34 VRB3 30.20S WRIGHTSTOWN SUNNY 56 32 40 SW5 30.17S TOMS RIVER SUNNY 55 32 41 W5 30.19S BELMAR SUNNY 55 34 44 W6 30.18S $$ PAZ047>061-062-071-272100- EASTERN PENNSYLVANIA CITY SKY/WX TMP DP RH WIND PRES REMARKS PHILADELPHIA PTSUNNY 56 32 40 S6 30.20S ALLENTOWN SUNNY 56 33 42 SW7 30.15F SCRANTON SUNNY 52 33 48 SW7 30.13F $$ CTZ002-004>006-009-010-012-RIZ004-006-007-MAZ004-011-015-272100- SOUTHERN NEW ENGLAND IN CT CITY SKY/WX TMP DP RH WIND PRES REMARKS BRADLEY INTL MOSUNNY 54 33 45 W8 30.14S HARTFORD SUNNY 53 32 44 SW13 30.15S DANBURY SUNNY 52 32 46 W8 30.17S WTRBRY/OXFORD SUNNY 52 34 50 W5 30.15S BRIDGEPORT SUNNY 50 37 61 SW3 30.17F MERIDEN SUNNY 52 33 48 S9 30.16S NEW HAVEN SUNNY 53 33 46 SW6 30.17F CHESTER FAIR 52 32 46 SW6 30.17R GROTON SUNNY 47 36 65 SW9 30.17R WILLIMANTIC SUNNY 52 33 48 W5 30.16S IN RI CITY SKY/WX TMP DP RH WIND PRES REMARKS PROVIDENCE PTSUNNY 52 33 48 W13 30.16R BLOCK ISLAND SUNNY 48 37 66 SW12 30.18R WESTERLY SUNNY 48 39 71 SW8 30.18R IN MA CITY SKY/WX TMP DP RH WIND PRES REMARKS BOSTON MOSUNNY 52 33 48 W8 30.13S WORCESTER SUNNY 46 32 58 W10 30.13S WESTFIELD SUNNY 53 32 44 CALM 30.14F PROVINCETOWN SUNNY 48 32 53 S7 30.15S NANTUCKET SUNNY 48 38 68 W10 30.17R $$ ANZ330-335-338-340-345-350-353-355-272100- COASTAL MARINE OBSERVATIONS STATION/POSITION TIME SKY/WX TEMP WIND PRES VSBY WAVE AIR SEA DIR/SP/G HT/PER (UTC) (F) (DEG/KT/KT) (MB) (MI) (FT/S) NY HARB ENTRANCE 2000 46 45 190/ 6/ 8 1022.3 3/15 4S FIRE IS 2000 47 N/A 3/14 20S FIRE ISLAND 1900 50 49 1023.3 4/16 23SW MTP 2000 N/A 3/15 HUDSON CANYON 2000 52 55 250/ 10/ 12 1022.9 4/15 EXECUTION ROCKS 2000 58 43 170/ 4/ 6 N/A WESTERN LI SOUND 2000 50 190/ 4/ 6 N/A 0 CENTRAL LI SOUND 1900 45 44 290/ 4/ 4 N/A 0 EASTERN LI SOUND NOT AVBL ROBBINS REEF 2000 51 1020.0 $$ >>>>>>>>>>>>>>>>>>>>>>>>>>>> KEY <<<<<<<<<<<<<<<<<<<<<<<<<<< > < > SKY/WX - SKY CONDITION/PRESENT WEATHER < > TMP - TEMPERATURE IN FAHRENHEIT < > DP - DEWPOINT IN FAHRENHEIT < > RH - RELATIVE HUMIDITY IN PERCENT < > WIND - DIRECTION AND SPEED IN MPH < > PRES - MEAN SEA LEVEL PRESSURE IN INCHES OF HG < > WCI - WIND CHILL INDEX < > VSB - VISIBILITY IN MILES < > HX - HEAT INDEX < > TC - TEMPERATURE IN CELSIUS < > VRB - VARIABLE WIND DIRECTION < > < >>>>>>>>>>>>>>>>>>>>>>>>>>>> KEY <<<<<<<<<<<<<<<<<<<<<<<<<<<

USA.gov is the U.S. government's official web portal to all federal, state and local government web resources and services.